Date,TemperatureHighF,TemperatureAvgF,TemperatureLowF,DewpointHighF,DewpointAvgF,DewpointLowF,HumidityHigh,HumidityAvg,HumidityLow,PressureMaxIn,PressureMinIn,WindSpeedMaxMPH,WindSpeedAvgMPH,GustSpeedMaxMPH,PrecipitationSumIn
2012-1-1,57.2,47.9,29.1,41.2,30.0,14.3,98,53,29,28.85,28.59,19,3,19,0.00
2012-1-2,39.0,32.2,23.7,20.9,8.4,3.7,81,38,29,28.79,28.70,17,5,17,0.00
2012-1-3,30.6,25.4,22.1,6.1,2.1,-0.5,43,36,32,29.00,28.85,17,5,17,0.00
2012-1-4,43.9,36.8,22.5,19.7,8.3,1.8,48,31,23,29.00,28.73,14,2,15,0.00
2012-1-5,53.1,45.1,36.9,20.5,17.7,13.4,42,34,26,28.82,28.76,15,4,15,0.00
2012-1-6,68.2,56.2,41.7,25.2,18.4,10.9,36,23,15,28.76,28.67,13,3,13,0.00
2012-1-7,65.3,58.6,45.7,39.9,36.5,30.2,65,44,35,28.82,28.64,15,4,15,0.00
2012-1-8,57.6,48.8,30.2,27.3,22.6,19.3,80,38,25,29.00,28.94,6,1,6,0.00
2012-1-9,39.7,36.9,36.1,35.1,30.5,18.8,94,79,43,29.00,28.79,6,1,6,0.04
2012-1-10,57.4,45.7,28.9,39.0,24.5,19.5,98,48,27,28.85,28.76,13,2,13,0.04
2012-1-11,41.5,40.3,37.8,41.0,39.5,34.4,98,97,87,28.70,28.32,9,0,9,0.67
2012-1-12,58.6,53.5,43.3,44.4,37.5,28.6,92,55,43,28.35,28.20,17,4,17,0.08
2012-1-13,35.2,30.1,28.2,12.7,9.1,7.5,42,41,38,28.73,28.47,25,5,25,0.08
2012-1-14,41.2,34.7,28.6,20.2,12.3,8.4,63,40,29,28.88,28.76,11,3,12,0.00
2012-1-15,40.5,33.4,24.1,19.6,12.0,7.2,64,42,29,29.23,29.00,10,2,10,0.00
2012-1-16,47.3,37.7,20.3,29.0,20.2,11.6,82,51,35,29.23,28.97,9,1,9,0.00
2012-1-17,61.2,51.7,41.5,51.2,39.3,27.2,98,66,37,28.82,28.59,11,1,11,0.00
2012-1-18,42.1,35.5,25.3,16.1,12.0,8.2,54,38,32,28.88,28.79,14,3,14,0.00
2012-1-19,44.8,36.5,18.3,17.3,13.2,7.9,82,40,29,28.91,28.73,9,2,9,0.00
2012-1-20,48.4,41.9,33.8,32.3,22.0,14.0,94,48,31,28.91,28.82,8,2,8,0.12
2012-1-21,47.3,41.4,34.5,44.6,39.5,34.0,98,93,80,28.91,28.61,10,0,10,0.12
2012-1-22,36.1,34.9,32.5,34.5,28.8,23.3,98,79,61,29.12,29.03,6,1,6,0.12
2012-1-23,41.0,38.1,34.5,40.5,37.6,34.0,98,98,98,28.91,28.67,6,0,6,0.16
2012-1-24,62.1,52.5,34.2,47.3,27.4,21.1,98,42,24,28.97,28.82,15,3,15,0.00
2012-1-25,58.6,48.0,31.1,30.3,26.9,23.5,84,47,27,29.06,28.91,10,2,10,0.00
2012-1-26,63.9,55.7,37.4,56.2,41.8,29.8,91,61,40,28.82,28.47,10,1,10,0.00
2012-1-27,60.6,52.0,41.2,41.8,29.4,21.5,57,42,36,28.76,28.35,18,6,18,0.00
2012-1-28,56.7,45.7,28.6,29.3,22.5,10.2,90,42,30,28.97,28.73,15,3,17,0.00
2012-1-29,50.2,44.2,31.8,14.6,8.6,5.6,34,23,19,29.06,28.88,17,5,17,0.00
2012-1-30,60.1,47.3,34.0,21.7,16.9,10.3,50,31,19,29.12,29.00,13,2,13,0.00
2012-1-31,68.7,57.5,32.7,23.8,20.2,15.8,60,25,15,29.03,28.91,16,4,16,0.00
2012-2-1,65.5,58.2,46.6,53.4,41.4,23.6,98,58,33,28.88,28.79,17,3,17,0.00
2012-2-2,63.9,56.2,45.1,41.8,27.2,18.7,62,34,24,29.06,28.76,15,3,15,0.00
2012-2-3,59.2,48.1,29.5,25.1,21.6,17.1,79,37,24,29.21,29.06,8,1,8,0.00
2012-2-4,50.4,44.8,37.4,44.8,35.6,24.2,98,74,38,29.00,28.79,5,0,5,0.20
2012-2-5,41.5,39.2,35.6,38.2,36.1,33.9,98,89,77,28.97,28.79,4,0,4,0.20
2012-2-6,51.8,45.2,31.5,33.9,28.2,24.1,98,53,38,29.00,28.82,9,1,9,0.00
2012-2-7,60.4,49.7,34.7,25.3,22.7,18.5,63,36,24,28.91,28.82,7,1,7,0.00
2012-2-8,43.9,38.9,31.1,34.3,25.8,17.9,84,60,43,28.97,28.85,6,1,7,0.04
2012-2-9,49.1,39.6,29.1,19.3,16.2,12.5,64,39,28,29.03,28.91,10,2,10,0.04
2012-2-10,47.3,41.3,25.5,31.5,23.2,17.8,82,50,38,28.88,28.64,6,1,6,0.00
2012-2-11,42.1,30.3,19.9,28.3,7.5,-4.5,74,38,31,28.79,28.56,21,6,21,0.00
2012-2-12,40.3,31.4,19.6,9.9,4.4,-3.6,36,31,26,28.91,28.82,15,6,15,0.00
2012-2-13,50.4,41.2,28.6,14.6,10.6,7.1,40,29,19,28.97,28.82,11,3,11,0.00
2012-2-14,51.1,45.7,36.7,40.0,26.3,15.5,86,49,30,28.79,28.67,8,1,8,0.00
2012-2-15,61.0,52.0,35.6,25.6,23.5,18.9,65,34,24,29.00,28.91,8,2,8,0.00
2012-2-16,50.7,46.1,43.5,47.1,43.8,36.3,98,92,64,28.91,28.76,8,0,8,0.16
2012-2-17,58.6,49.8,38.7,27.9,22.6,17.0,51,35,25,28.88,28.79,11,2,11,0.16
2012-2-18,63.3,54.2,35.1,29.0,22.1,15.3,75,30,19,28.85,28.70,8,1,8,0.00
2012-2-19,41.7,34.1,32.5,32.6,30.3,18.9,98,88,40,28.76,28.59,8,0,8,0.00
2012-2-20,50.2,39.3,26.1,30.4,21.7,15.7,91,53,28,29.06,28.88,8,0,8,0.20
2012-2-21,54.0,42.6,26.1,31.1,25.5,19.9,87,54,33,29.00,28.67,12,2,12,0.20
2012-2-22,64.2,53.4,35.8,46.8,31.8,21.1,93,49,21,28.64,28.35,19,4,19,0.55
2012-2-23,72.0,60.6,42.1,46.3,39.3,31.7,89,48,23,28.41,28.32,11,2,11,0.00
2012-2-24,75.9,57.9,42.1,56.6,35.5,12.7,98,46,27,28.59,28.20,24,7,24,0.16
2012-2-25,45.7,38.6,33.3,14.3,9.3,5.7,34,29,25,29.06,28.70,26,7,26,0.16
2012-2-26,53.6,43.4,28.8,18.6,13.8,8.0,50,31,21,29.18,29.09,9,2,9,0.00
2012-2-27,65.1,53.7,28.4,27.3,23.7,17.0,71,33,23,29.15,28.97,11,2,11,0.00
2012-2-28,67.6,57.1,37.0,25.4,18.7,12.2,52,24,15,29.15,29.00,9,2,9,0.00
2012-2-29,68.9,56.4,43.7,56.8,48.4,39.1,98,77,45,28.88,28.53,8,1,8,0.55
2012-3-1,71.4,63.8,49.6,31.4,22.2,12.8,35,21,14,28.64,28.50,24,6,24,0.55
2012-3-2,50.2,45.5,38.1,44.5,38.9,28.8,98,80,48,28.76,28.50,8,1,8,0.55
2012-3-3,57.9,51.4,44.6,36.8,22.5,12.4,60,34,20,28.53,28.41,15,4,15,0.55
2012-3-4,47.1,40.9,35.8,16.5,13.0,9.2,40,32,28,28.70,28.50,15,5,15,0.00
2012-3-5,43.9,38.1,32.7,32.6,15.6,9.1,87,41,30,29.18,28.64,20,5,20,0.00
2012-3-6,57.7,46.3,27.7,20.3,16.6,13.5,64,32,19,29.35,29.21,10,2,10,0.00
2012-3-7,67.5,56.5,30.6,34.7,29.5,19.0,68,37,26,29.32,29.12,17,4,17,0.00
2012-3-8,69.1,63.9,54.9,52.3,40.1,36.4,82,43,32,29.06,28.85,25,6,25,0.00
2012-3-9,58.6,50.9,43.9,24.8,19.1,12.8,43,29,22,29.09,28.91,17,4,17,0.00
2012-3-10,58.5,48.3,35.4,16.6,12.8,6.7,42,25,17,29.23,29.15,8,2,8,0.00
2012-3-11,66.4,54.3,28.9,27.3,21.8,17.7,69,30,18,29.26,29.09,10,2,10,0.00
2012-3-12,73.4,62.2,36.7,48.0,36.3,24.7,68,40,26,29.09,28.94,16,3,16,0.00
2012-3-13,80.1,71.5,51.3,48.6,39.9,32.8,86,35,21,28.91,28.82,12,4,12,0.00
2012-3-14,82.4,71.4,49.8,47.4,37.6,27.0,86,32,14,29.00,28.91,8,2,8,0.00
2012-3-15,71.6,63.2,48.7,48.7,42.5,37.7,81,49,31,29.03,28.91,24,2,24,0.00
2012-3-16,74.3,66.7,54.5,50.8,45.6,40.5,82,49,31,28.97,28.85,10,1,10,0.00
2012-3-17,75.7,68.2,55.2,57.2,46.2,40.8,92,49,31,29.03,28.94,9,2,9,0.00
2012-3-18,66.9,61.6,55.4,60.6,54.7,51.0,95,79,61,29.09,28.97,6,1,6,0.35
2012-3-19,80.6,69.8,54.9,59.2,49.4,41.7,98,54,26,29.03,28.85,6,1,6,0.08
2012-3-20,80.6,68.3,53.4,59.6,52.1,41.3,97,62,31,29.03,28.88,9,2,9,0.12
2012-3-21,74.8,66.1,53.1,61.3,52.8,47.9,98,66,41,29.09,28.94,8,1,8,0.00
2012-3-22,80.2,72.0,55.0,57.0,48.7,44.5,97,47,30,29.00,28.88,11,2,11,0.00
2012-3-23,84.4,74.0,54.1,60.2,45.8,36.5,96,41,20,28.85,28.70,11,3,11,0.04
2012-3-24,70.2,61.9,56.5,61.7,54.3,42.5,98,79,41,28.70,28.56,8,1,8,0.63
2012-3-25,58.8,57.2,54.5,56.9,54.8,50.8,98,92,75,28.61,28.53,5,0,5,0.43
2012-3-26,71.1,63.7,51.4,38.8,29.5,13.2,53,29,16,28.88,28.67,15,4,15,0.43
2012-3-27,64.2,54.2,34.2,26.5,21.6,15.2,64,29,19,29.06,28.94,8,1,8,0.00
2012-3-28,82.8,70.4,41.5,43.5,38.0,31.2,72,33,21,28.82,28.56,18,4,18,0.00
2012-3-29,77.4,69.1,55.0,33.2,28.3,21.9,36,22,15,28.73,28.64,14,3,14,0.00
2012-3-30,73.9,64.9,48.6,41.8,35.3,29.6,57,34,25,28.82,28.61,9,2,9,0.00
2012-3-31,77.0,69.7,60.3,47.7,40.1,31.9,59,35,24,28.61,28.50,10,2,10,0.00
2012-4-1,76.6,66.0,42.6,42.7,35.9,30.5,90,37,21,28.67,28.44,12,3,12,0.00
2012-4-2,77.2,70.3,53.8,46.0,28.3,15.9,45,23,13,28.73,28.47,9,2,9,0.00
2012-4-3,82.2,68.4,40.8,48.6,38.7,29.0,74,36,22,28.79,28.59,10,2,11,0.00
2012-4-4,81.0,72.9,60.3,51.8,44.7,39.4,63,37,26,28.59,28.41,14,3,14,0.00
2012-4-5,54.7,48.3,45.5,44.2,39.8,34.4,91,73,56,28.67,28.56,6,0,6,0.12
2012-4-6,65.8,57.0,45.3,38.2,24.0,12.5,76,30,16,28.85,28.70,8,2,8,0.12
2012-4-7,69.8,59.0,32.9,27.5,18.7,9.8,77,24,14,29.00,28.85,8,1,9,0.00
2012-4-8,73.2,65.1,44.6,30.4,25.3,20.1,53,23,16,28.88,28.67,16,4,16,0.00
2012-4-9,71.4,64.8,42.3,26.5,21.5,16.8,42,20,14,28.79,28.56,17,5,17,0.00
2012-4-10,68.0,62.1,53.4,24.3,16.7,10.7,22,17,15,28.64,28.53,21,6,21,0.00
2012-4-11,50.7,44.8,40.5,19.5,15.2,12.1,34,30,27,28.88,28.73,10,3,10,0.00
2012-4-12,62.4,54.0,40.5,25.9,22.4,19.2,49,30,21,28.97,28.85,9,2,9,0.00
2012-4-13,65.8,58.5,40.1,29.4,24.6,21.0,65,28,20,29.00,28.97,6,1,6,0.00
2012-4-14,76.1,65.8,39.0,34.1,31.7,28.6,76,30,21,29.03,28.85,10,2,10,0.00
2012-4-15,83.5,75.1,51.4,49.2,41.2,36.3,70,31,19,28.91,28.79,13,3,13,0.00
2012-4-16,88.2,79.2,58.3,54.9,44.2,36.5,88,32,18,28.88,28.76,15,4,15,0.00
2012-4-17,77.9,71.0,60.8,44.9,36.9,29.3,55,30,18,29.00,28.94,8,1,8,0.00
2012-4-18,52.7,51.5,50.7,50.5,48.8,44.5,96,90,76,29.03,28.88,6,0,6,0.51
2012-4-19,62.8,58.5,50.9,50.9,45.7,40.1,98,64,45,28.88,28.79,4,0,5,0.00
2012-4-20,72.0,63.8,47.7,54.2,45.3,40.4,98,54,35,28.76,28.59,8,1,8,0.00
2012-4-21,78.6,64.3,56.1,61.3,52.6,37.9,95,70,25,28.56,28.47,11,1,11,0.35
2012-4-22,52.9,52.7,52.5,52.3,52.1,51.8,98,98,98,28.50,28.47,0,0,0,0.04
2012-4-25,68.4,61.9,54.1,51.6,39.2,26.4,89,50,23,28.64,28.59,6,1,6,0.04
2012-4-26,72.1,63.7,55.6,59.2,53.7,48.1,98,73,43,28.59,28.47,15,3,15,0.35
2012-4-27,70.7,63.0,54.3,40.7,30.7,24.4,59,30,20,28.88,28.73,10,2,10,0.35
2012-4-28,50.5,49.9,49.5,24.6,23.9,22.5,37,36,34,29.00,28.97,4,0,4,0.00
2012-5-7,69.6,67.8,66.4,56.5,54.8,51.6,70,63,54,28.79,28.73,4,0,4,0.00
2012-5-8,74.1,68.4,64.6,64.8,58.9,53.6,96,73,51,28.73,28.61,9,1,9,0.16
2012-5-9,67.6,61.3,54.9,63.1,54.2,44.2,98,79,47,28.61,28.50,6,0,6,0.16
2012-5-10,67.8,62.8,53.6,39.6,31.9,26.3,59,32,25,28.76,28.56,11,2,11,0.16
2012-5-11,72.3,64.2,46.6,40.4,29.1,21.6,79,29,16,28.97,28.88,7,1,7,0.00
2012-5-12,74.8,67.7,46.4,43.9,38.6,33.6,83,36,25,29.09,28.97,9,2,9,0.00
2012-5-13,73.8,66.7,55.2,59.9,48.7,41.7,92,55,35,29.00,28.88,10,2,10,0.08
2012-5-14,67.1,64.0,61.0,64.5,61.8,57.4,98,93,85,28.82,28.73,8,0,8,1.54
2012-5-15,74.8,69.4,62.1,64.7,56.2,48.8,98,65,42,28.76,28.70,6,0,6,1.54
2012-5-16,80.6,73.2,57.9,60.3,45.6,36.3,97,41,22,28.76,28.67,8,1,8,0.00
2012-5-17,78.8,72.2,55.9,54.3,47.8,43.6,94,43,31,28.88,28.76,8,1,8,0.00
2012-5-18,72.7,67.0,57.2,42.8,38.6,34.0,57,36,32,28.94,28.85,6,1,6,0.00
2012-5-19,77.2,68.9,52.5,50.4,41.4,32.8,85,40,21,28.94,28.88,6,1,6,0.00
2012-5-20,83.1,71.8,54.3,53.3,44.8,37.8,95,42,22,28.94,28.85,11,1,11,0.00
2012-5-21,81.5,72.2,57.6,62.7,50.7,42.0,96,53,29,28.82,28.67,10,1,10,0.24
2012-5-22,77.7,69.4,61.3,62.6,55.7,47.2,98,64,40,28.67,28.61,8,1,8,0.24
2012-5-23,74.1,70.2,63.7,62.7,54.3,47.6,96,58,42,28.70,28.64,5,1,5,0.04
2012-5-24,76.6,70.5,64.4,63.6,56.7,50.4,96,63,42,28.85,28.79,6,0,6,0.00
2012-5-25,87.1,78.5,66.4,65.9,52.7,42.3,96,44,23,28.94,28.88,7,1,7,0.00
2012-5-26,88.2,80.4,64.6,61.6,54.2,47.5,90,43,28,28.97,28.88,5,1,5,0.00
2012-5-27,85.5,79.1,66.9,65.1,53.4,47.8,94,43,28,28.97,28.85,8,1,8,0.00
2012-5-28,86.2,79.5,66.9,61.9,55.4,51.2,84,45,33,28.88,28.76,8,1,8,0.00
2012-5-29,87.3,77.2,67.3,65.9,56.3,48.7,94,54,30,28.76,28.59,12,2,12,0.28
2012-5-30,87.4,77.2,65.8,68.4,48.2,36.0,96,43,18,28.64,28.56,8,1,8,0.28
2012-5-31,87.1,77.4,66.9,62.1,47.4,38.7,83,39,21,28.70,28.61,10,2,10,0.00
2012-6-1,79.0,69.6,63.1,63.0,52.6,39.7,86,57,37,28.61,28.47,13,2,13,0.04
2012-6-2,72.5,66.6,58.1,38.2,33.3,30.4,46,29,23,28.70,28.64,10,2,10,0.04
2012-6-3,78.1,71.6,53.4,43.8,39.0,34.9,64,31,24,28.70,28.59,12,3,12,0.00
2012-6-4,81.7,74.5,61.9,53.1,38.7,33.3,73,29,20,28.56,28.47,10,2,10,0.00
2012-6-5,72.3,65.4,58.5,55.4,44.0,38.0,89,48,31,28.73,28.61,6,1,6,0.00
2012-6-6,66.7,62.1,57.2,55.8,46.7,39.5,94,59,38,28.82,28.73,6,0,6,0.00
2012-6-7,79.5,70.1,54.7,56.3,43.1,33.4,94,44,21,28.85,28.76,6,0,6,0.12
2012-6-8,82.0,73.3,55.2,56.7,42.6,35.4,96,37,21,28.85,28.76,5,0,5,0.00
2012-6-9,84.9,77.0,56.8,53.0,42.0,36.0,87,31,19,28.88,28.79,9,1,9,0.00
2012-6-10,85.8,77.2,60.3,57.3,44.6,36.1,90,35,20,28.94,28.88,11,2,11,0.00
2012-6-11,78.8,72.7,66.4,67.0,61.6,57.2,92,69,50,28.91,28.82,7,1,7,0.31
2012-6-12,86.7,78.0,70.0,70.8,59.5,50.5,96,56,30,28.76,28.64,10,1,10,0.31
2012-6-13,84.0,78.6,66.6,65.8,47.8,40.8,90,36,23,28.85,28.73,5,1,5,0.00
2012-6-14,78.8,72.8,57.6,53.3,44.9,39.2,82,38,30,28.97,28.91,7,1,7,0.00
2012-6-15,78.6,72.4,62.8,58.9,47.1,42.2,87,43,30,29.06,28.97,8,1,8,0.00
2012-6-16,77.7,71.9,57.9,53.9,43.2,35.4,85,38,22,29.09,28.97,6,1,6,0.00
2012-6-17,77.5,72.4,58.1,55.3,47.8,41.6,89,43,32,28.97,28.79,6,1,6,0.00
2012-6-18,80.6,72.3,65.5,66.0,61.2,52.5,92,70,43,28.88,28.79,11,0,11,0.51
2012-6-19,88.2,80.6,67.3,66.6,56.5,49.9,95,47,28,28.94,28.91,6,0,6,0.51
2012-6-20,92.5,84.3,68.2,65.1,56.0,45.3,90,41,21,28.97,28.85,5,0,5,0.04
2012-6-21,92.8,84.0,69.3,67.1,55.9,46.8,91,41,22,28.85,28.70,8,1,8,0.00
2012-6-22,90.5,79.1,68.5,66.8,57.2,45.9,87,51,22,28.73,28.64,12,1,12,0.20
2012-6-23,88.9,80.8,66.2,64.9,44.9,36.9,92,32,18,28.82,28.76,6,0,6,0.20
2012-6-24,87.6,78.2,63.5,63.0,51.8,39.6,81,44,21,28.82,28.73,14,1,14,0.00
2012-6-25,90.5,81.8,67.3,64.9,45.6,34.0,92,31,20,28.64,28.56,9,1,9,0.00
2012-6-26,81.1,73.7,60.6,36.8,33.8,30.4,41,24,19,28.76,28.64,6,1,6,0.00
2012-6-27,85.5,77.1,56.3,46.0,38.7,34.6,66,27,18,28.82,28.73,8,1,8,0.00
2012-6-28,96.1,86.4,59.7,50.2,42.4,38.1,70,24,14,28.82,28.64,8,1,8,0.00
2012-6-29,102.6,95.3,86.5,57.4,49.5,40.8,28,22,16,28.70,28.59,12,3,12,0.00
2012-7-2,95.0,88.1,78.3,52.8,46.4,42.6,41,24,18,28.85,28.76,8,2,8,0.00
2012-7-3,96.4,84.3,71.2,60.5,53.2,41.0,66,37,19,28.82,28.73,13,1,13,0.00
2012-7-4,96.4,87.5,72.5,60.8,51.0,44.3,66,31,18,28.79,28.70,8,2,8,0.00
2012-7-5,98.8,89.1,74.5,62.0,50.3,43.4,64,28,16,28.76,28.70,13,2,13,0.00
2012-7-6,98.6,87.9,71.6,58.4,50.9,43.5,61,31,17,28.82,28.73,8,1,8,0.00
2012-7-7,101.3,92.4,74.1,63.5,50.3,38.7,69,27,12,28.82,28.73,9,2,9,0.00
2012-7-8,102.4,92.0,73.4,62.9,50.8,44.3,68,27,16,28.76,28.64,11,3,11,0.00
2012-7-9,91.2,80.9,72.3,64.4,56.5,50.8,75,46,27,28.79,28.70,8,1,8,0.00
2012-7-10,83.7,75.2,67.6,65.2,55.2,46.9,88,53,30,28.85,28.79,8,1,8,0.12
2012-7-11,70.3,68.9,68.2,62.5,61.7,58.7,81,78,68,28.91,28.88,2,0,2,0.00
2012-7-15,82.4,80.1,79.0,57.8,56.6,54.3,48,45,39,28.91,28.88,3,0,3,0.00
2012-7-16,93.7,84.4,75.6,64.0,55.2,46.2,62,39,21,28.85,28.73,14,2,14,0.00
2012-7-17,94.6,87.4,69.8,68.0,51.9,42.3,91,32,18,28.79,28.70,10,2,10,0.00
2012-7-18,97.9,84.6,74.1,69.6,57.0,45.6,80,43,18,28.79,28.70,17,2,17,0.12
2012-7-19,92.8,81.6,70.7,67.7,58.3,49.1,88,49,24,28.82,28.70,10,2,10,0.16
2012-7-20,81.0,77.1,69.6,65.8,57.8,51.2,86,53,36,28.76,28.70,6,1,6,0.16
2012-7-21,88.7,81.7,72.0,64.7,57.3,50.2,78,45,29,28.91,28.76,6,1,6,0.00
2012-7-22,84.9,77.6,0.0,61.8,58.4,0.0,67,52,39,28.97,28.91,10,2,10,0.00
2012-7-23,91.4,79.1,72.3,70.9,61.5,51.9,91,59,28,28.94,28.82,14,2,14,0.39
2012-7-24,87.6,80.2,72.0,60.0,54.2,47.8,52,41,33,28.76,28.64,20,4,20,0.39
2012-7-25,90.7,83.9,72.0,64.8,54.8,49.0,66,38,25,28.79,28.67,10,2,10,0.00
2012-7-26,97.3,90.5,79.2,59.5,50.5,44.3,51,27,17,28.70,28.59,14,4,14,0.00
2012-7-27,92.8,82.0,71.4,68.4,55.5,47.4,73,42,23,28.76,28.67,16,2,16,0.04
2012-7-28,91.2,84.5,70.5,62.2,45.5,39.0,75,27,19,28.79,28.73,12,3,12,0.04
2012-7-29,88.3,82.2,65.3,59.3,46.5,41.3,80,31,20,28.85,28.76,7,1,7,0.00
2012-7-30,88.0,80.2,69.1,59.3,50.9,42.0,71,38,22,28.85,28.76,9,2,9,0.00
2012-7-31,85.8,78.2,67.5,61.5,53.0,48.7,80,44,29,28.82,28.70,9,2,9,0.00
2012-8-1,91.2,76.6,64.4,65.7,55.3,43.0,93,53,20,28.73,28.64,10,1,10,0.20
2012-8-2,90.1,82.8,65.7,64.4,53.7,46.9,92,40,24,28.73,28.67,9,1,9,0.20
2012-8-3,90.1,82.1,69.4,65.4,56.5,52.4,87,43,29,28.85,28.76,10,2,10,0.00
2012-8-4,87.6,81.9,70.5,64.4,54.7,50.1,81,40,29,28.97,28.91,13,2,13,0.00
2012-8-5,90.9,79.7,72.7,73.7,62.7,50.8,88,59,27,29.00,28.88,13,1,13,0.71
2012-8-6,80.1,77.0,70.9,70.4,60.3,54.1,93,58,43,28.91,28.82,6,1,6,0.71
2012-8-7,88.0,81.7,68.2,66.9,55.8,48.1,91,44,27,28.82,28.76,6,1,6,0.00
2012-8-8,91.4,82.8,71.2,66.2,52.9,42.1,83,40,20,28.82,28.73,7,1,7,0.00
2012-8-9,90.1,81.9,68.0,64.5,54.3,44.5,88,42,21,28.79,28.64,13,2,13,0.00
2012-8-10,86.9,78.1,69.1,67.8,55.2,46.7,91,48,29,28.64,28.59,13,4,13,0.04
2012-8-11,85.3,77.3,68.5,53.7,45.8,40.7,58,34,22,28.76,28.67,8,2,8,0.04
2012-8-12,85.8,76.8,63.0,49.4,41.0,34.7,61,29,19,28.82,28.76,8,1,8,0.00
2012-8-13,86.9,77.9,61.5,57.4,47.3,42.0,72,36,22,28.88,28.73,11,2,11,0.00
2012-8-14,87.4,79.7,66.6,60.7,49.5,44.6,81,37,25,28.76,28.64,11,2,11,0.00
2012-8-15,79.5,75.0,68.5,57.1,50.7,46.0,66,43,32,28.79,28.70,6,1,6,0.00
2012-8-16,87.3,79.6,61.0,58.0,43.0,37.2,86,30,19,28.85,28.73,9,2,9,0.00
2012-8-17,88.3,80.1,63.0,54.9,45.8,40.5,75,31,19,28.73,28.64,10,2,10,0.00
2012-8-18,84.4,77.1,67.1,52.3,43.0,35.9,59,31,20,28.76,28.67,9,2,9,0.00
2012-8-19,70.5,66.8,63.1,63.5,54.8,46.6,91,67,44,28.76,28.67,4,0,4,0.35
2012-8-21,82.9,77.1,66.9,53.3,42.5,35.9,61,31,20,28.88,28.79,9,1,9,0.00
2012-8-22,78.6,74.3,66.2,57.3,50.5,44.4,72,45,31,28.94,28.85,7,1,7,0.00
2012-8-23,83.5,76.2,62.1,62.2,50.0,39.9,90,43,22,28.97,28.91,9,1,9,0.00
2012-8-24,82.6,74.5,61.2,60.2,49.3,42.7,89,43,28,28.97,28.91,8,1,8,0.00
2012-8-25,76.5,69.6,61.0,55.8,46.7,40.8,82,45,31,29.00,28.91,6,0,6,0.00
2012-8-26,80.8,73.3,65.5,57.1,51.5,44.9,71,48,31,29.00,28.91,6,1,6,0.00
2012-8-27,87.1,79.4,62.4,62.2,50.4,44.8,90,39,26,28.97,28.82,8,1,8,0.00
2012-8-28,88.2,81.5,65.3,59.5,51.2,46.8,81,36,26,28.82,28.70,6,1,6,0.00
2012-8-29,87.3,78.9,62.6,56.5,45.3,38.8,79,34,19,28.82,28.76,9,1,9,0.00
2012-8-30,87.8,80.5,66.4,60.4,52.2,48.8,81,39,27,28.91,28.85,10,2,10,0.00
2012-8-31,94.5,86.5,67.6,66.6,50.8,44.7,89,32,19,29.00,28.88,8,2,8,0.00
2012-9-1,89.1,79.4,70.3,67.7,57.4,45.9,89,51,26,28.94,28.85,17,1,17,0.12
2012-9-2,85.8,78.8,70.0,69.5,59.7,52.6,92,54,33,28.85,28.73,8,1,8,0.12
2012-9-3,76.8,73.8,70.5,65.8,62.5,58.8,82,68,55,28.85,28.76,5,0,5,0.00
2012-9-4,83.7,78.0,72.1,67.0,58.5,53.3,84,52,37,28.79,28.70,10,2,10,0.00
2012-9-5,84.6,77.1,70.5,68.8,62.7,55.2,88,64,39,28.70,21.47,10,1,10,0.31
2012-9-6,83.3,76.8,69.3,71.3,57.6,47.6,92,56,30,28.76,17.72,6,0,6,0.00
2012-9-7,87.8,80.4,63.9,63.8,53.6,45.4,91,43,24,28.79,28.64,8,1,8,0.00
2012-9-8,86.2,73.9,64.8,64.1,48.0,36.8,88,42,27,28.70,28.53,15,3,15,0.00
2012-9-9,76.6,68.7,52.7,48.3,36.7,30.8,83,33,21,28.79,28.67,5,1,6,0.00
2012-9-10,78.1,69.2,51.6,48.9,34.9,28.8,85,32,18,28.97,28.85,8,1,8,0.00
2012-9-11,76.6,68.0,47.7,47.5,37.5,31.9,84,36,22,29.09,29.00,8,1,8,0.00
2012-9-12,80.2,70.8,51.8,51.1,41.1,34.5,88,37,22,29.12,29.03,8,1,8,0.00
2012-9-13,79.0,69.8,50.7,50.8,38.1,31.1,88,35,20,29.15,29.03,8,1,8,0.00
2012-9-14,79.3,70.9,51.8,51.5,42.2,36.4,84,39,23,29.06,28.94,7,1,7,0.00
2012-9-15,78.4,71.2,57.4,54.5,46.4,43.2,85,43,30,29.00,28.88,8,1,8,0.00
2012-9-16,65.5,63.2,60.1,52.1,47.1,36.8,74,56,38,28.97,28.85,4,0,4,0.08
2012-9-17,67.8,65.5,61.7,63.1,57.7,49.2,91,77,54,28.88,28.73,4,0,4,0.39
2012-9-18,74.1,68.9,66.9,64.9,56.2,44.2,84,65,46,28.64,28.47,12,1,12,0.39
2012-9-19,53.2,52.7,52.5,49.0,48.1,47.8,86,84,84,28.82,28.79,0,0,0,0.00
2012-9-24,66.2,58.3,50.9,32.9,29.3,26.7,50,34,23,28.94,28.88,5,2,5,0.00
2012-9-25,73.2,62.4,41.9,51.6,40.9,32.4,85,50,25,28.97,28.85,8,1,8,0.00
2012-9-26,83.3,73.4,51.8,55.3,46.1,39.9,91,42,22,28.94,28.88,7,1,7,0.00
2012-9-27,83.7,74.4,57.9,60.2,45.9,37.9,91,40,20,28.97,28.85,8,1,8,0.00
2012-9-28,75.0,70.6,64.8,58.8,47.5,41.8,79,46,32,28.88,28.79,9,1,9,0.00
2012-9-29,68.9,63.5,58.1,56.9,48.3,43.3,80,59,40,28.79,28.67,6,1,6,0.00
2012-9-30,73.8,63.9,45.3,44.5,36.2,30.2,86,40,21,28.70,28.61,9,1,9,0.00
2012-10-1,59.7,58.2,56.1,55.5,52.0,46.6,91,80,65,28.70,28.67,3,0,3,0.12
2012-10-2,67.8,64.6,59.2,63.9,60.1,56.9,93,86,73,28.73,28.64,0,0,0,0.12
2012-10-3,79.5,72.1,64.2,66.1,55.8,49.8,97,60,36,28.91,28.82,4,0,4,0.08
2012-10-4,78.4,70.2,57.6,52.9,42.6,35.0,70,39,22,29.00,28.94,6,2,6,0.00
2012-10-5,78.6,68.5,49.8,52.8,42.3,34.1,92,44,21,28.97,28.79,10,1,10,0.00
2012-10-6,76.3,64.7,55.4,54.7,38.9,28.9,89,41,31,28.79,28.67,15,2,15,0.00
2012-10-7,50.5,48.2,41.7,45.3,41.1,36.8,86,76,64,28.91,28.79,4,0,4,0.04
2012-10-8,46.8,45.5,43.0,43.3,38.5,33.4,94,77,61,29.00,28.91,3,0,3,0.08
2012-10-9,60.6,54.9,45.5,42.8,35.8,30.4,77,50,35,28.94,28.82,6,0,6,0.08
2012-10-10,67.1,60.8,46.6,45.7,32.7,25.3,92,36,28,28.85,28.73,12,4,12,0.00
2012-10-11,65.5,55.9,38.3,34.7,26.4,21.0,64,34,24,29.03,28.91,8,1,8,0.00
2012-10-12,70.5,61.0,41.2,40.6,28.5,24.6,82,32,19,29.09,28.94,8,2,8,0.00
2012-10-13,63.9,55.2,37.8,33.8,26.9,21.7,74,36,25,29.21,29.03,10,2,10,0.00
2012-10-14,74.1,62.6,40.8,45.7,39.0,32.5,86,44,29,29.00,28.73,12,1,12,0.00
2012-10-15,73.0,65.4,55.2,57.3,37.2,22.0,85,39,22,28.64,28.50,10,3,10,0.04
2012-10-16,69.6,59.4,45.5,29.4,25.9,19.9,52,29,17,28.70,28.61,9,2,9,0.04
2012-10-17,70.5,58.8,37.4,36.6,31.1,26.8,83,38,23,28.76,28.61,10,1,10,0.00
2012-10-18,68.2,60.6,46.0,49.6,42.7,36.4,81,53,34,28.64,28.53,10,1,10,0.00
2012-10-19,71.6,63.9,47.5,38.7,25.6,18.5,71,26,14,28.53,28.41,13,4,13,0.00
2012-10-20,64.0,57.4,46.9,28.4,24.3,19.9,47,28,24,28.70,28.56,15,3,15,0.00
2012-10-21,68.2,56.2,36.9,34.2,26.6,20.9,79,35,17,28.91,28.82,6,1,6,0.00
2012-10-22,78.4,61.4,37.4,39.3,33.2,28.2,83,39,20,28.97,28.85,6,1,6,0.00
2012-10-23,82.4,68.7,44.2,45.6,36.4,31.8,86,35,17,28.91,28.82,11,2,11,0.00
2012-10-24,82.8,70.1,51.1,45.7,36.5,30.1,78,33,16,28.94,28.82,8,1,8,0.00
2012-10-25,80.8,68.6,48.6,47.5,36.9,31.1,84,35,19,28.91,28.85,8,1,8,0.00
2012-10-26,69.8,63.0,57.0,47.1,44.3,40.2,65,51,35,28.91,28.79,6,1,6,0.00
2012-10-27,69.3,63.3,59.0,56.7,44.5,37.0,88,53,34,28.70,28.59,5,0,5,0.04
2012-10-28,64.8,57.5,47.3,36.1,32.3,28.3,60,39,28,28.53,28.44,10,3,10,0.04
2012-10-29,43.9,42.5,41.0,24.8,21.4,18.0,51,43,38,28.38,27.99,24,7,24,0.04
2012-10-30,43.3,41.8,37.6,17.5,15.4,13.4,43,34,32,28.29,28.02,17,7,17,0.00
2012-10-31,48.7,45.8,42.8,19.4,18.3,17.2,36,33,30,28.50,28.38,14,5,14,0.00
2012-11-1,49.8,46.8,43.2,21.0,18.5,15.3,38,32,27,28.56,28.50,15,5,15,0.00
2012-11-2,59.2,51.7,45.3,20.6,13.9,8.8,29,22,17,28.70,28.56,15,3,15,0.00
2012-11-3,59.9,51.5,39.0,32.5,16.8,11.3,64,26,17,28.85,28.76,8,2,8,0.04
2012-11-4,54.3,47.2,39.2,35.6,26.4,17.9,77,45,32,28.82,28.73,6,0,6,0.04
2012-11-5,56.1,45.1,30.2,25.5,18.6,15.2,79,37,22,28.85,28.76,5,1,5,0.00
2012-11-6,40.8,37.9,28.4,20.6,17.5,15.3,65,44,38,28.91,28.73,4,0,4,0.00
2012-11-7,52.0,43.6,30.2,23.8,19.5,17.4,76,39,27,28.70,28.59,4,1,4,0.00
2012-11-8,60.3,51.4,40.5,15.1,9.7,4.1,25,19,15,28.88,28.76,11,4,11,0.00
2012-11-9,68.2,53.4,32.0,22.3,17.8,11.3,52,27,15,28.97,28.91,10,2,10,0.00
2012-11-10,73.8,56.3,32.9,23.2,20.3,14.4,66,27,13,29.09,29.00,5,0,5,0.00
2012-11-11,74.3,61.2,34.9,32.7,25.2,18.5,68,28,14,29.18,29.09,9,1,9,0.00
2012-11-12,65.3,62.4,54.9,53.7,44.7,38.8,77,53,45,29.09,28.88,17,5,17,0.04
2012-11-13,55.2,44.5,31.5,19.7,15.9,11.2,53,32,23,29.18,29.06,6,2,6,0.04
2012-11-14,47.8,40.0,27.5,18.3,15.2,12.3,65,37,28,29.23,29.09,4,1,4,0.00
2012-11-15,48.2,41.4,28.9,21.4,16.7,14.2,72,38,28,29.12,29.00,4,2,4,0.00
2012-11-16,57.9,44.4,26.1,24.0,17.9,13.5,77,37,19,29.15,29.00,4,1,4,0.00
2012-11-17,57.6,45.8,27.0,24.4,16.1,10.7,74,33,19,29.26,29.18,6,1,6,0.00
2012-11-18,55.4,49.0,42.4,22.8,20.4,16.2,40,32,27,29.26,29.15,4,1,4,0.00
2012-11-19,56.1,47.9,36.5,28.2,25.9,23.2,70,43,32,29.15,28.97,6,1,6,0.00
2012-11-20,55.6,45.1,35.2,33.2,28.1,25.4,83,53,34,28.94,28.79,4,0,4,0.00
2012-11-21,62.8,48.3,29.3,29.2,19.2,12.1,83,35,16,28.97,28.88,5,1,5,0.00
2012-11-22,63.7,47.8,28.0,24.5,17.1,10.7,75,32,16,29.03,28.91,6,1,6,0.00
2012-11-23,66.2,54.5,29.5,27.8,22.8,13.9,60,30,23,28.82,28.61,17,4,17,0.00
2012-11-24,42.8,36.4,30.6,11.7,6.2,2.4,31,28,23,28.85,28.76,14,4,14,0.00
2012-11-25,56.8,43.2,30.7,10.7,7.0,2.6,32,23,15,28.85,28.67,9,2,9,0.00
2012-11-26,63.0,55.6,44.2,28.3,16.8,8.1,42,23,16,28.91,28.82,8,3,8,0.00
2012-11-27,50.5,46.5,41.2,40.7,29.6,21.2,82,53,37,28.97,28.85,8,1,8,0.04
2012-11-28,53.2,44.2,33.1,16.4,10.4,2.6,38,25,18,29.09,29.00,10,2,10,0.04
2012-11-29,55.6,41.9,23.0,17.4,12.5,8.9,56,32,17,29.18,29.03,5,1,5,0.00
2012-11-30,61.9,47.6,28.8,22.9,18.0,14.3,62,33,19,29.09,29.00,5,1,5,0.00
2012-12-1,64.0,50.3,30.0,27.7,24.8,19.9,72,40,24,29.15,29.03,6,1,6,0.00
2012-12-2,67.3,57.6,34.2,33.5,29.8,24.9,79,37,24,29.09,28.91,10,2,10,0.00
2012-12-3,73.4,63.5,50.9,41.6,37.1,34.0,69,39,25,29.03,28.94,7,1,7,0.00
2012-12-4,73.9,63.1,42.1,45.7,33.1,28.8,89,36,22,29.03,28.88,10,2,10,0.00
2012-12-5,63.9,55.3,39.9,33.0,17.4,9.5,40,23,16,29.00,28.88,8,2,8,0.00
2012-12-6,48.9,43.3,27.5,18.5,15.9,13.7,64,34,28,29.09,28.94,8,2,8,0.00
2012-12-7,54.5,48.0,40.3,34.6,28.3,21.4,72,47,34,28.88,28.73,5,1,5,0.00
2012-12-8,68.4,57.3,39.7,40.8,35.1,30.8,88,47,26,28.76,28.67,10,1,10,0.00
2012-12-9,65.8,57.1,42.3,48.3,41.2,35.7,87,58,34,28.88,28.73,9,2,9,0.00
2012-12-10,65.8,58.0,52.0,55.0,47.2,36.9,97,70,36,28.56,28.38,6,0,6,0.00
2012-12-11,52.0,43.0,35.4,21.1,16.5,13.0,41,34,28,28.91,28.67,11,3,11,0.00
2012-12-12,44.6,40.9,34.9,18.0,16.4,14.7,47,37,31,29.09,29.03,7,0,7,0.00
2012-12-13,49.8,38.4,26.4,16.0,11.5,8.1,61,34,21,29.18,29.06,6,1,6,0.00
2012-12-14,62.2,45.3,20.8,19.7,13.2,8.8,62,30,16,29.09,28.94,8,2,8,0.00
2012-12-15,58.1,47.3,33.8,25.5,17.7,14.7,46,31,22,29.00,28.82,7,1,7,0.00
2012-12-16,46.8,44.2,39.9,42.8,37.9,31.6,86,79,60,28.76,28.59,6,0,6,0.00
2012-12-17,55.6,51.5,43.7,51.4,43.9,31.9,97,77,42,28.59,28.38,10,1,13,0.00
2012-12-18,55.6,48.9,39.9,31.3,22.2,14.5,48,35,27,28.61,28.44,20,6,20,0.00
2012-12-19,64.6,54.6,39.7,24.1,19.2,13.5,42,26,18,28.88,28.67,12,4,12,0.00
2012-12-20,43.7,40.6,35.1,39.0,28.2,19.7,90,64,39,28.88,28.23,8,1,8,0.47
2012-12-21,40.3,35.4,33.3,14.6,9.2,7.1,42,33,30,28.50,28.29,18,8,18,0.47
2012-12-22,44.1,38.2,33.3,12.9,8.2,3.0,33,28,23,28.82,28.70,17,6,17,0.00
2012-12-23,57.4,45.7,24.3,21.1,13.1,5.0,44,28,17,28.82,28.67,12,2,12,0.00
2012-12-24,42.1,39.1,37.9,38.2,35.7,33.9,94,88,74,28.73,28.61,8,1,8,0.43
2012-12-25,54.7,47.3,36.7,38.5,29.2,23.4,94,52,31,28.88,28.64,7,1,7,0.00
2012-12-26,40.6,35.2,33.3,33.8,29.7,22.8,90,80,51,28.67,28.29,13,1,13,0.79
2012-12-27,41.5,35.2,31.1,16.6,13.0,10.6,43,39,35,28.82,28.53,20,4,20,0.79
2012-12-28,39.4,36.0,27.7,19.4,15.7,13.5,58,44,36,28.88,28.73,4,0,4,0.04
2012-12-29,48.7,39.4,33.3,32.3,20.5,10.2,88,50,31,28.67,28.41,13,5,13,0.04
2012-12-30,42.6,35.6,30.7,11.5,7.6,4.0,33,30,28,29.09,28.94,11,6,11,0.04
2012-12-31,47.1,40.2,27.0,14.7,9.4,3.5,47,29,17,29.03,28.79,12,2,12,0.00
2013-1-1,51.1,47.4,41.4,34.1,26.4,18.3,73,44,38,28.73,28.64,8,2,8,0.04